Date String (YYYY-MM-DD hh:mm:ss) UTC,Instrument flags,absolute air pressure of the measurement (hPa),sample flow rate (lpm),inlet stack bypass flow (lpm),air temperature of the measurement (°C),ambient temperature measured by the external sensor (°C),aerosol sample conditioner tube jacket temperature (°C),OPC LED temperature (°C),internal box temperature (°C),relative humidity of the measurement (%),span deviation,mass concentration of particles derived from Lorenz-Mie calculation of OPC scattering (μg/m³),mass concentration of particles derived from Lorenz-Mie calculation of OPC scattering (μg/m³),mass concentration of particles derived from Lorenz-Mie calculation of OPC scattering (μg/m³)
DateTimeUTC,F1_M11,P_M11,Q1_M11,Q2_M11,T1_M11,T2_M11,T3_M11,T4_M11,T5_M11,U1_M11,ZSPAN_M11,X0_M11,X2_M11,X1_M11
2024-05-30 08:00:00,SystemResetWarning,0827.4,5.01,000.00,031.2,030.4,000.0,039.6,032.9,014.6,0000.0,0013.73,0004.01,0002.72
2024-05-30 08:01:00,SystemResetWarning,0827.7,5.00,000.00,031.2,030.4,000.0,039.6,033.0,014.9,0000.0,0014.28,0004.01,0002.74
2024-05-30 08:02:00,SystemResetWarning,0827.7,5.01,000.00,031.2,030.4,000.0,039.6,033.0,014.9,0000.0,0014.26,0004.03,0002.75
2024-05-30 08:03:00,SystemResetWarning,0827.8,5.01,000.00,031.2,030.4,000.0,039.6,033.0,014.9,0000.0,0014.22,0003.97,0002.75
2024-05-30 08:04:00,SystemResetWarning,0827.7,4.99,000.00,031.3,030.4,000.0,039.6,033.0,014.9,0000.0,0014.52,0003.95,0002.76
2024-05-30 08:05:00,SystemResetWarning,0827.5,4.99,000.00,031.3,030.4,000.0,039.6,033.0,014.8,0000.0,0014.35,0003.96,0002.74
2024-05-30 08:06:00,SystemResetWarning,0827.5,5.00,000.00,031.3,030.4,000.0,039.6,033.0,014.9,0000.0,0014.13,0003.91,0002.71
2024-05-30 08:07:00,SystemResetWarning,0827.5,5.00,000.00,031.3,030.4,000.0,039.6,032.9,014.9,0000.0,0014.54,0003.88,0002.70
2024-05-30 08:08:00,SystemResetWarning,0827.5,5.00,000.00,031.3,030.4,000.0,039.6,033.0,014.9,0000.0,0015.16,0003.77,0002.69
2024-05-30 08:09:00,SystemResetWarning,0827.6,5.00,000.00,031.3,030.5,000.0,039.6,033.0,014.9,0000.0,0014.71,0003.72,0002.69
2024-05-30 08:10:00,SystemResetWarning,0827.6,5.00,000.00,031.3,030.5,000.0,039.6,033.0,014.9,0000.0,0016.19,0003.72,0002.69
2024-05-30 08:11:00,SystemResetWarning,0827.7,5.00,000.00,031.3,030.5,000.0,039.6,032.9,015.0,0000.0,0016.59,0003.75,0002.70
2024-05-30 08:12:00,SystemResetWarning,0827.7,5.01,000.00,031.3,030.5,000.0,039.6,033.0,015.0,0000.0,0015.60,0003.72,0002.69
2024-05-30 08:13:00,SystemResetWarning,0827.7,5.00,000.00,031.3,030.5,000.0,039.6,033.0,014.9,0000.0,0015.67,0003.71,0002.71
2024-05-30 08:14:00,SystemResetWarning,0827.7,5.00,000.00,031.3,030.5,000.0,039.7,033.0,014.8,0000.0,0015.44,0003.74,0002.73
2024-05-30 08:15:00,SystemResetWarning,0827.7,5.00,000.00,031.3,030.5,000.0,039.6,032.9,014.7,0000.0,0016.66,0003.83,0002.74
2024-05-30 08:16:00,SystemResetWarning,0827.7,5.00,000.00,031.3,030.5,000.0,039.6,032.9,014.6,0000.0,0017.30,0003.85,0002.75
2024-05-30 08:17:00,SystemResetWarning,0827.7,5.00,000.00,031.3,030.4,000.0,039.6,032.9,014.5,0000.0,0017.80,0003.93,0002.76
2024-05-30 08:18:00,SystemResetWarning,0827.7,4.99,000.00,031.3,030.4,000.0,039.6,032.9,014.4,0000.0,0018.36,0004.00,0002.77
2024-05-30 08:19:00,SystemResetWarning,0827.7,4.99,000.00,031.3,030.4,000.0,039.6,033.0,014.3,0000.0,0017.90,0004.09,0002.78
2024-05-30 08:20:00,SystemResetWarning,0827.7,5.01,000.00,031.3,030.4,000.0,039.6,033.0,014.2,0000.0,0017.71,0004.14,0002.80
2024-05-30 08:21:00,SystemResetWarning,0827.7,5.01,000.00,031.3,030.4,000.0,039.6,033.0,014.1,0000.0,0016.81,0004.17,0002.79
2024-05-30 08:22:00,SystemResetWarning,0827.7,5.00,000.00,031.3,030.4,000.0,039.6,032.9,014.1,0000.0,0016.96,0004.19,0002.77
2024-05-30 08:23:00,SystemResetWarning,0827.8,5.00,000.00,031.3,030.4,000.0,039.6,032.9,014.0,0000.0,0017.82,0004.21,0002.76
2024-05-30 08:24:00,SystemResetWarning,0827.8,5.00,000.00,031.3,030.4,000.0,039.6,032.9,014.0,0000.0,0017.94,0004.23,0002.74
2024-05-30 08:25:00,SystemResetWarning,0827.8,4.99,000.00,031.3,030.5,000.0,039.6,032.9,013.9,0000.0,0017.92,0004.27,0002.72
2024-05-30 08:26:00,SystemResetWarning,0827.8,4.99,000.00,031.3,030.5,000.0,039.6,032.9,013.7,0000.0,0016.52,0004.20,0002.70
2024-05-30 08:27:00,SystemResetWarning,0827.8,5.01,000.00,031.3,030.5,000.0,039.6,033.0,013.7,0000.0,0015.55,0004.16,0002.70
2024-05-30 08:28:00,SystemResetWarning,0827.8,5.01,000.00,031.3,030.5,000.0,039.6,033.0,013.7,0000.0,0015.45,0004.13,0002.70
2024-05-30 08:29:00,SystemResetWarning,0827.9,5.00,000.00,031.3,030.4,000.0,039.6,033.0,013.7,0000.0,0014.68,0004.09,0002.67
2024-05-30 08:30:00,SystemResetWarning,0828.0,5.00,000.00,031.3,030.4,000.0,039.6,032.9,013.7,0000.0,0015.16,0004.03,0002.63
2024-05-30 08:31:00,SystemResetWarning,0828.0,5.01,000.00,031.3,030.4,000.0,039.6,032.9,013.7,0000.0,0014.87,0003.98,0002.58
2024-05-30 08:32:00,SystemResetWarning,0828.1,5.00,000.00,031.3,030.5,000.0,039.6,032.9,013.7,0000.0,0014.11,0003.91,0002.54
2024-05-30 08:33:00,SystemResetWarning,0828.1,5.00,000.00,031.3,030.5,000.0,039.7,032.9,013.6,0000.0,0012.78,0003.86,0002.54
2024-05-30 08:34:00,SystemResetWarning,0828.1,4.99,000.00,031.3,030.5,000.0,039.7,033.0,013.6,0000.0,0011.76,0003.88,0002.56
2024-05-30 08:35:00,SystemResetWarning,0828.0,5.00,000.00,031.3,030.5,000.0,039.7,033.0,013.8,0000.0,0011.41,0003.86,0002.54
2024-05-30 08:36:00,SystemResetWarning,0828.1,5.00,000.00,031.3,030.5,000.0,039.7,033.0,013.8,0000.0,0010.88,0003.80,0002.53
2024-05-30 08:37:00,SystemResetWarning,0828.1,4.99,000.00,031.3,030.5,000.0,039.7,032.9,014.0,0000.0,0011.59,0003.82,0002.52
2024-05-30 08:38:00,SystemResetWarning,0828.1,4.99,000.00,031.3,030.5,000.0,039.7,033.0,014.1,0000.0,0011.47,0003.81,0002.47
2024-05-30 08:39:00,SystemResetWarning,0828.1,5.00,000.00,031.3,030.5,000.0,039.7,033.0,014.1,0000.0,0010.91,0003.81,0002.44
2024-05-30 08:40:00,SystemResetWarning,0828.0,5.00,000.00,031.3,030.5,000.0,039.7,033.0,014.2,0000.0,0011.09,0003.78,0002.41
2024-05-30 08:41:00,SystemResetWarning,0828.1,5.01,000.00,031.3,030.5,000.0,039.7,033.0,014.2,0000.0,0010.69,0003.75,0002.39
2024-05-30 08:42:00,SystemResetWarning,0828.0,5.01,000.00,031.3,030.5,000.0,039.7,033.0,014.3,0000.0,0010.70,0003.72,0002.37
2024-05-30 08:43:00,SystemResetWarning,0828.1,5.00,000.00,031.3,030.5,000.0,039.7,033.0,014.3,0000.0,0010.56,0003.70,0002.36
2024-05-30 08:44:00,SystemResetWarning,0828.1,4.99,000.00,031.3,030.5,000.0,039.7,033.0,014.4,0000.0,0011.60,0003.68,0002.34
2024-05-30 08:45:00,SystemResetWarning,0828.1,4.99,000.00,031.3,030.5,000.0,039.7,033.0,014.3,0000.0,0011.98,0003.62,0002.28
2024-05-30 08:46:00,SystemResetWarning,0828.2,5.01,000.00,031.3,030.5,000.0,039.7,033.0,014.4,0000.0,0011.98,0003.59,0002.26
2024-05-30 08:47:00,SystemResetWarning,0828.2,5.01,000.00,031.3,030.5,000.0,039.7,033.0,014.4,0000.0,0012.02,0003.59,0002.25
2024-05-30 08:48:00,SystemResetWarning,0828.2,5.00,000.00,031.3,030.5,000.0,039.7,033.0,014.4,0000.0,0011.44,0003.58,0002.23
2024-05-30 08:49:00,SystemResetWarning,0828.2,4.98,000.00,031.3,030.5,000.0,039.7,033.0,014.4,0000.0,0012.36,0003.52,0002.22
2024-05-30 08:50:00,SystemResetWarning,0828.2,5.00,000.00,031.3,030.5,000.0,039.7,033.0,014.5,0000.0,0012.95,0003.45,0002.22
2024-05-30 08:51:00,SystemResetWarning,0828.2,5.00,000.00,031.3,030.5,000.0,039.7,033.0,014.8,0000.0,0012.70,0003.41,0002.22
2024-05-30 08:52:00,SystemResetWarning,0828.1,5.00,000.00,031.3,030.5,000.0,039.7,033.0,014.9,0000.0,0012.56,0003.40,0002.22
2024-05-30 08:53:00,SystemResetWarning,0828.1,5.01,000.00,031.3,030.5,000.0,039.7,033.0,014.9,0000.0,0011.98,0003.43,0002.22
2024-05-30 08:54:00,SystemResetWarning,0828.1,5.00,000.00,031.3,030.5,000.0,039.7,033.0,014.8,0000.0,0012.12,0003.44,0002.22
2024-05-30 08:55:00,SystemResetWarning,0828.1,4.99,000.00,031.3,030.5,000.0,039.7,033.0,014.7,0000.0,0011.69,0003.45,0002.21
2024-05-30 08:56:00,SystemResetWarning,0828.1,4.99,000.00,031.3,030.5,000.0,039.7,033.0,014.6,0000.0,0011.49,0003.48,0002.24
2024-05-30 08:57:00,SystemResetWarning,0828.1,5.01,000.00,031.3,030.5,000.0,039.7,033.0,014.6,0000.0,0011.30,0003.49,0002.24
2024-05-30 08:58:00,SystemResetWarning,0828.0,5.01,000.00,031.3,030.5,000.0,039.7,033.0,014.6,0000.0,0011.67,0003.49,0002.23
2024-05-30 08:59:00,SystemResetWarning,0828.1,5.01,000.00,031.3,030.5,000.0,039.7,033.0,014.7,0000.0,0012.71,0003.46,0002.22
